This is the latest recevied weather packets stored in our database for station/object N8VDS-10. If no packets are shown the sender has not sent any weather packets the latest 10 day(s).
| Time | Temp. | Humidity | Pressure | Rain* | Wind** | Luminosity | Snow |
|---|---|---|---|---|---|---|---|
| 1777995381 | 8.89° C | 82% | 1010.3 hPa | 0 mm | - | 146 W/m² | - |
| 1777995078 | 8.89° C | 81% | 1010.2 hPa | 0 mm | - | 132 W/m² | - |
| 1777994774 | 8.89° C | 82% | 1010.3 hPa | 0 mm | - | 142 W/m² | - |
| 1777994470 | 8.33° C | 82% | 1010.3 hPa | 0 mm | - | 108 W/m² | - |
| 1777994166 | 8.33° C | 82% | 1010.4 hPa | 0 mm | - | 75 W/m² | - |
| 1777993863 | 8.89° C | 83% | 1010.5 hPa | 1.27 mm | - | 76 W/m² | - |
| 1777993559 | 8.89° C | 83% | 1010.2 hPa | 3.05 mm | - | 78 W/m² | - |
| 1777993256 | 8.89° C | 80% | 1010 hPa | 1.78 mm | - | 108 W/m² | - |
| 1777992952 | 8.89° C | 78% | 1010 hPa | 0 mm | - | 92 W/m² | - |
| 1777992650 | 8.89° C | 75% | 1009.9 hPa | 1.27 mm | - | 81 W/m² | - |
| 1777992348 | 8.89° C | 76% | 1009.7 hPa | 1.27 mm | - | 52 W/m² | - |
| 1777992045 | 8.89° C | 73% | 1009.7 hPa | 0 mm | - | 52 W/m² | - |
| 1777991743 | 8.89° C | 72% | 1009.7 hPa | 0 mm | - | 50 W/m² | - |
| 1777991440 | 8.89° C | 70% | 1009.7 hPa | 0 mm | - | 50 W/m² | - |
| 1777991137 | 9.44° C | 67% | 1009.7 hPa | 0 mm | - | 47 W/m² | - |
| 1777990834 | 9.44° C | 65% | 1009.7 hPa | 0 mm | - | 48 W/m² | - |
| 1777990531 | 9.44° C | 64% | 1009.8 hPa | 0 mm | - | 63 W/m² | - |
| 1777989925 | 10° C | 64% | 1009.8 hPa | 0 mm | - | 54 W/m² | - |
| 1777989622 | 10° C | 65% | 1009.8 hPa | 0 mm | - | 127 W/m² | - |
| 1777989318 | 9.44° C | 67% | 1010 hPa | 0 mm | - | 89 W/m² | - |
| 1777989014 | 9.44° C | 66% | 1009.9 hPa | 0 mm | - | 111 W/m² | - |
| 1777988710 | 9.44° C | 68% | 1009.9 hPa | 0 mm | - | 91 W/m² | - |
| 1777988408 | 8.89° C | 68% | 1009.1 hPa | 0 mm | - | 48 W/m² | - |
| 1777988104 | 8.89° C | 67% | 1008.9 hPa | 0 mm | - | 44 W/m² | - |
| 1777987800 | 9.44° C | 65% | 1008.6 hPa | 0 mm | - | 52 W/m² | - |
* Rain latest hour (hover to see other rain measurements)
** Current wind speed in m/s (hover to see current wind gust speed)